Weather History for Astoria, OR

Change the Weather History Date:

Monday, November 12, 2012

  Actual Average Record
Temperature  
Mean Temperature 52 °F 48 °F  
Max Temperature 56 °F 54 °F 67 °F (1907)
Min Temperature 48 °F 41 °F 21 °F (1955)
Degree Days  
Heating Degree Days 13 17  
Month to date heating degree days 198 197  
Since 1 July heating degree days 1095 1064  
Cooling Degree Days 0 0  
Month to date cooling degree days 0 0  
Year to date cooling degree days 25 12  
Moisture  
Dew Point 49 °F    
Average Humidity 89    
Maximum Humidity 100    
Minimum Humidity 77    
Precipitation  
Precipitation 0.25 in 0.37 in 3.69 in (2008)
Month to date precipitation 2.59 4.01  
Year to date precipitation 65.47 50.23  
Snow  
Snow 0.00 in - - ()
Month to date snowfall 0.0  
Since 1 July snowfall 0.0  
Since 1 September snowfall 0.0  
Snow Depth 0.00 in    
Sea Level Pressure  
Sea Level Pressure 30.13 in    
Wind  
Wind Speed 7 mph (South)    
Max Wind Speed 32 mph    
Max Gust Speed 45 mph    
Visibility 7 miles    
Events Rain    
T = Trace of Precipitation, MM = Missing Value Source: NWS Daily Summary

Daily Weather History Graph

Daily Weather History Graph

Search for Another Location

Airport:

Trip Planner

Search our weather history database for the weather conditions in past years. The results will help you decide how hot, cold, wet, or windy it might be!

Date:

Astronomy

Nov. 12, 2012 Rise Set
Actual Time 7:13 AM PST 4:45 PM PST
Civil Twilight 6:40 AM PST 5:18 PM PST
Nautical Twilight 6:04 AM PST 5:54 PM PST
Astronomical Twilight 5:29 AM PST 6:29 PM PST
Moon 5:42 AM PST (11/12) 3:56 PM PST (11/12)
Length of Visible Light 10h 37m
Length of Day
9h 32m
Waning Crescent, 2% of the Moon is Illuminated
Nov 12
Waning Crescent
Nov 13
New
Nov 20
First Quarter
Nov 28
Full
Dec 6
Last Quarter

Hourly Weather History & Observations

Time (PST) Temp. Dew Point Humidity Pressure Visibility Wind Dir Wind Speed Gust Speed Precip Events Conditions
12:55 AM 52.0 °F 48.0 °F 86% 30.04 in 10.0 mi South 18.4 mph 34.5 mph 0.06 in   Overcast
1:15 AM 51.8 °F 48.2 °F 88% 30.03 in 7.0 mi South 24.2 mph 34.5 mph N/A   Overcast
1:31 AM 51.8 °F 48.2 °F 88% 30.03 in 10.0 mi South 20.7 mph 34.5 mph N/A   Overcast
1:55 AM 52.0 °F 48.9 °F 89% 30.03 in 7.0 mi South 25.3 mph 38.0 mph 0.00 in   Overcast
2:24 AM 51.8 °F 48.2 °F 88% 30.03 in 5.0 mi SSW 18.4 mph 31.1 mph 0.01 in   Overcast
2:55 AM 52.0 °F 48.9 °F 89% 30.03 in 4.0 mi SSW 33.4 mph 42.6 mph 0.01 in   Overcast
3:13 AM 51.8 °F 48.2 °F 88% 30.04 in 5.0 mi SSW 25.3 mph 40.3 mph N/A   Overcast
3:26 AM 51.8 °F 48.2 °F 88% 30.04 in 4.0 mi SSW 26.5 mph 38.0 mph N/A   Overcast
3:45 AM 51.8 °F 50.0 °F 94% 30.05 in 2.5 mi SSW 20.7 mph 34.5 mph N/A   Overcast
3:55 AM 51.1 °F 50.0 °F 96% 30.06 in 4.0 mi SW 15.0 mph 24.2 mph 0.04 in Rain Light Rain
4:27 AM 51.8 °F 50.0 °F 94% 30.06 in 7.0 mi SSW 16.1 mph 28.8 mph 0.02 in   Overcast
4:35 AM 51.8 °F 50.0 °F 94% 30.06 in 7.0 mi SSW 10.4 mph 24.2 mph N/A   Overcast
4:51 AM 51.8 °F 51.8 °F 100% 30.07 in 5.0 mi SW 6.9 mph - 0.03 in Rain Light Rain
4:55 AM 51.1 °F 51.1 °F 100% 30.07 in 3.0 mi Variable 6.9 mph - 0.04 in Rain Rain
4:58 AM 51.8 °F 51.8 °F 100% 30.07 in 2.5 mi West 5.8 mph - 0.01 in Rain Rain
5:05 AM 51.8 °F 50.0 °F 94% 30.07 in 4.0 mi NNW 3.5 mph - 0.02 in Rain Light Rain
5:55 AM 50.0 °F 50.0 °F 100% 30.09 in 4.0 mi Calm Calm - 0.03 in Rain Light Rain
6:09 AM 50.0 °F 50.0 °F 100% 30.09 in 2.0 mi Calm Calm - 0.01 in Rain Light Rain
6:38 AM 50.0 °F 50.0 °F 100% 30.10 in 1.8 mi Calm Calm - 0.02 in Rain Light Rain
6:45 AM 50.0 °F 50.0 °F 100% 30.10 in 1.8 mi Calm Calm - 0.03 in Rain Light Rain
6:51 AM 50.0 °F 50.0 °F 100% 30.11 in 3.0 mi Calm Calm - 0.04 in Rain Light Rain
6:55 AM 50.0 °F 50.0 °F 100% 30.11 in 4.0 mi Calm Calm - 0.04 in Rain Light Rain
7:55 AM 48.0 °F 48.0 °F 100% 30.13 in 6.0 mi East 3.5 mph - 0.01 in Rain Light Rain
8:03 AM 48.2 °F 48.2 °F 100% 30.13 in 9.0 mi East 3.5 mph - N/A   Overcast
8:37 AM 48.2 °F 48.2 °F 100% 30.13 in 10.0 mi ENE 3.5 mph - N/A   Overcast
8:55 AM 48.9 °F 48.0 °F 97% 30.14 in 9.0 mi NE 4.6 mph - N/A   Overcast
9:55 AM 50.0 °F 48.9 °F 96% 30.15 in 10.0 mi Calm Calm - N/A   Overcast
10:37 AM 51.8 °F 50.0 °F 94% 30.15 in 10.0 mi East 3.5 mph - N/A   Overcast
10:55 AM 50.0 °F 48.9 °F 96% 30.16 in 10.0 mi East 3.5 mph - N/A   Overcast
11:24 AM 51.8 °F 50.0 °F 94% 30.16 in 10.0 mi Calm Calm - N/A   Overcast
11:55 AM 53.1 °F 50.0 °F 89% 30.16 in 10.0 mi NNE 4.6 mph - N/A   Overcast
12:13 PM 51.8 °F 50.0 °F 94% 30.16 in 10.0 mi North 5.8 mph - N/A   Overcast
12:40 PM 53.6 °F 50.0 °F 88% 30.16 in 10.0 mi Calm Calm - N/A   Mostly Cloudy
12:55 PM 54.0 °F 50.0 °F 86% 30.16 in 10.0 mi Variable 3.5 mph - N/A   Mostly Cloudy
1:55 PM 55.0 °F 50.0 °F 83% 30.16 in 10.0 mi Variable 6.9 mph - N/A   Overcast
2:55 PM 54.0 °F 46.9 °F 77% 30.16 in 10.0 mi SSW 5.8 mph - N/A   Overcast
3:55 PM 51.8 °F 48.2 °F 88% 30.17 in 10.0 mi SSW 6.9 mph - N/A   Partly Cloudy
4:40 PM 51.8 °F 50.0 °F 94% 30.17 in 9.0 mi SW 5.8 mph - 0.00 in Rain Light Rain
4:55 PM 52.0 °F 50.0 °F 93% 30.17 in 4.0 mi SSW 6.9 mph - 0.01 in Rain Light Rain
5:55 PM 51.1 °F 48.9 °F 92% 30.18 in 10.0 mi SW 5.8 mph - 0.00 in   Scattered Clouds
6:55 PM 50.0 °F 48.9 °F 96% 30.19 in 10.0 mi Calm Calm - N/A   Overcast
7:47 PM 50.0 °F 48.2 °F 94% 30.20 in 10.0 mi SE 4.6 mph - N/A   Overcast
7:55 PM 50.0 °F 48.0 °F 93% 30.20 in 10.0 mi SSE 3.5 mph - N/A   Overcast
8:03 PM 50.0 °F 48.2 °F 94% 30.20 in 10.0 mi SE 3.5 mph - N/A   Overcast
8:55 PM 48.9 °F 48.0 °F 97% 30.20 in 10.0 mi SE 3.5 mph - N/A   Overcast
9:55 PM 50.0 °F 48.9 °F 96% 30.21 in 10.0 mi SSE 4.6 mph - N/A   Mostly Cloudy
10:28 PM 50.0 °F 48.2 °F 94% 30.21 in 10.0 mi SSE 3.5 mph - 0.00 in Rain Light Rain
10:35 PM 50.0 °F 48.2 °F 94% 30.21 in 7.0 mi SSE 3.5 mph - 0.00 in Rain Light Rain
10:55 PM 50.0 °F 48.9 °F 96% 30.21 in 3.0 mi SE 4.6 mph - 0.02 in Rain Light Rain
11:16 PM 51.8 °F 48.2 °F 88% 30.21 in 8.0 mi SSE 5.8 mph - 0.00 in Rain Light Rain
11:55 PM 50.0 °F 48.9 °F 96% 30.21 in 10.0 mi South 3.5 mph - 0.00 in   Overcast